Location: *
(57.8420°S, 159.8600°W)
Time: 04:21:22
(UTC+00:00)

CORIOLIS - Pass Details

Date: 18 May 2021
Orbit: 817 x 839 km, 98.7° (Epoch: 23 June)

Event Time Altitude Azimuth Distance (km) Brightness Sun altitude
Exits shadow 05:40:49 20° 162° (SSE) 1,872 5.8 -25.1°
Maximum altitude 05:44:46 90° 64° (ENE) 860 4.1 -25.6°
Drops below altitude 10° 05:50:17 10° 341° (NNW) 2,473 6.8 -26.4°
Sets 05:52:38 0° 340° (NNW) 3,401 7.5 -26.7°
